Flag for U.S.A. Weather past 2 weeks in Paradise, Nevada, U.S.A.

Now
63 °F

Clear.


Feels Like: 63 °F
Forecast: 57 / 88 °F
Wind: 7 mph from Southwest

Location: McCarran International Airport

Current Time: Mar 30, 2015 at 6:29:36 AM

Latest Report: Mar 30, 2015 at 5:56 AM


Visibility: 10 mi

Pressure: 29.93 "Hg

Humidity: 24%

Dew point: 25 °F

Location of ParadiseLocation

Historic Weather in Paradise — Graph

°F

Paradise temperature yesterday

Maximum temperature yesterday: 88 °F (at 3:56 PM)
Minimum temperature yesterday: 62 °F (at 6:56 AM)
Average temperature yesterday: 76 °F

Past Weeks' High & Low Weather Summary

 TemperatureHumidityPressure
High90 °F (Mar 28, 2:56 PM)48% (Mar 19, 5:56 AM)30.21 "Hg (Mar 19, 5:56 AM)
Low56 °F (Mar 20, 4:56 AM)4% (Mar 28, 4:56 PM)29.76 "Hg (Mar 17, 5:56 PM)
Average71 °F19%29.94 "Hg
* Reported Mar 15 4:56 AM — Mar 30 4:56 AM, Paradise, Weather by CustomWeather, © 2015

Note: Actual official high and low records may vary slightly from our data, if they occured in-between our weather recording intervals... More about our weather records

Advertising

Paradise weather history for previous 24 hours

 ConditionsComfort  
Time TempWeatherWind HumidityBarometerVisibility
4:56 AM
Mon, Mar 30
64 °FPassing clouds.6 mph19%29.92 "Hg10 mi
3:56 AM66 °FPassing clouds.10 mph19%29.91 "Hg10 mi
2:56 AM67 °FPassing clouds.8 mph17%29.90 "Hg10 mi
1:56 AM70 °FPassing clouds.5 mph16%29.90 "Hg10 mi
12:56 AM72 °FPassing clouds.10 mph14%29.90 "Hg10 mi
11:56 PM
Sun, Mar 29
73 °FPassing clouds.9 mph13%29.90 "Hg10 mi
10:56 PM73 °FPassing clouds.7 mph16%29.90 "Hg10 mi
9:56 PM76 °FPassing clouds.8 mph13%29.90 "Hg10 mi
8:56 PM80 °FPassing clouds.7 mph11%29.89 "Hg10 mi
7:56 PM83 °FPassing clouds.6 mph9%29.87 "Hg10 mi
6:56 PM86 °FPartly sunny.3 mph8%29.87 "Hg10 mi
5:56 PM88 °FPartly sunny.5 mph7%29.87 "Hg10 mi
4:56 PM88 °FPartly sunny.6 mph7%29.88 "Hg10 mi
3:56 PM88 °FScattered clouds.5 mph7%29.90 "Hg10 mi
2:56 PM87 °FScattered clouds.3 mph8%29.92 "Hg10 mi
1:56 PM86 °FScattered clouds.5 mph9%29.95 "Hg10 mi
12:56 PM84 °FScattered clouds.6 mph10%29.98 "Hg10 mi
11:56 AM83 °FScattered clouds.No wind10%30.01 "Hg10 mi
10:56 AM80 °FScattered clouds.No wind10%30.02 "Hg10 mi
9:56 AM76 °FPartly sunny.6 mph11%30.03 "Hg10 mi
8:56 AM72 °FPartly sunny.10 mph16%30.02 "Hg10 mi
7:56 AM67 °FScattered clouds.10 mph18%30.01 "Hg10 mi
6:56 AM62 °FPassing clouds.10 mph20%29.99 "Hg10 mi
Weather by CustomWeather, © 2015

See weather overviewHow to use our weather pages